• In Germany
  • List of Countries
  • For 7 days
  • Water Temperature
  • Satellite Maps
  • Weather Map
  • Weather Widgets
  • user-avatar
    Login

    Hourly Weather Newberg

    Today, 19 November, Sunday

    Time Temperature Precipitation Wind Pressure Humidity
    00:00 +4°C° 0 mm 1 mps 751 mmHg 82%
    01:00 +4°C° 0 mm 1 mps 750 mmHg 81%
    02:00 +4°C° 0 mm 1 mps 750 mmHg 79%
    03:00 +4°C° 0 mm 1 mps 750 mmHg 78%
    04:00 +3°C° 0 mm 1 mps 750 mmHg 83%
    05:00 +3°C° 0 mm 1 mps 749 mmHg 81%
    06:00 +3°C° 0 mm 1 mps 749 mmHg 79%
    07:00 +3°C° 0 mm 1 mps 748 mmHg 78%
    08:00 +4°C° 0 mm 1 mps 747 mmHg 71%
    09:00 +6°C° 0 mm 1 mps 747 mmHg 64%
    10:00 +7°C° 0 mm 2 mps 746 mmHg 57%
    11:00 +8°C° 0 mm 2 mps 745 mmHg 53%
    12:00 +9°C° 0 mm 3 mps 745 mmHg 49%
    13:00 +11°C° 0 mm 4 mps 744 mmHg 44%
    14:00 +10°C° 0 mm 4 mps 743 mmHg 49%
    15:00 +9°C° 0 mm 3 mps 742 mmHg 53%
    16:00 +9°C° 0 mm 3 mps 741 mmHg 57%
    17:00 +8°C° 2.2 mm 3 mps 740 mmHg 65%
    18:00 +8°C° 2.2 mm 3 mps 740 mmHg 74%
    19:00 +7°C° 2.2 mm 3 mps 739 mmHg 83%
    20:00 +8°C° 1.5 mm 3 mps 739 mmHg 85%
    21:00 +8°C° 1.5 mm 4 mps 739 mmHg 87%
    22:00 +8°C° 1.5 mm 4 mps 739 mmHg 88%
    23:00 +9°C° 2 mm 5 mps 739 mmHg 89%

    Tomorrow, 20 November, Monday

    Time Temperature Precipitation Wind Pressure Humidity
    00:00 +9°C° 2 mm 5 mps 738 mmHg 90%
    01:00 +10°C° 2 mm 5 mps 738 mmHg 90%
    02:00 +10°C° 2.6 mm 5 mps 738 mmHg 91%
    03:00 +11°C° 2.6 mm 4 mps 738 mmHg 92%
    04:00 +11°C° 2.6 mm 4 mps 738 mmHg 93%
    05:00 +11°C° 1.6 mm 4 mps 738 mmHg 94%
    06:00 +11°C° 1.6 mm 3 mps 739 mmHg 94%
    07:00 +10°C° 1.6 mm 2 mps 739 mmHg 95%
    08:00 +12°C° 0.4 mm 2 mps 740 mmHg 93%
    09:00 +12°C° 0.4 mm 2 mps 741 mmHg 90%
    10:00 +12°C° 0.4 mm 2 mps 741 mmHg 88%
    11:00 +13°C° 0.1 mm 1 mps 742 mmHg 84%
    12:00 +13°C° 0.1 mm 1 mps 742 mmHg 80%
    13:00 +14°C° 0.1 mm 1 mps 743 mmHg 77%
    14:00 +13°C° 0 mm 1 mps 743 mmHg 80%
    15:00 +13°C° 0 mm 1 mps 743 mmHg 82%
    16:00 +12°C° 0 mm 1 mps 743 mmHg 85%
    17:00 +12°C° 0 mm 1 mps 744 mmHg 87%
    18:00 +12°C° 0 mm 1 mps 744 mmHg 88%
    19:00 +11°C° 0 mm 1 mps 744 mmHg 90%
    20:00 +11°C° 0 mm 1 mps 744 mmHg 90%
    21:00 +11°C° 0 mm 1 mps 745 mmHg 91%
    22:00 +11°C° 0 mm 1 mps 745 mmHg 91%
    23:00 +11°C° 0.8 mm 1 mps 745 mmHg 92%

    Day after tomorrow, 21 November, Tuesday

    Time Temperature Precipitation Wind Pressure Humidity
    00:00 +12°C° 0.8 mm 1 mps 745 mmHg 93%
    01:00 +12°C° 0.8 mm 1 mps 745 mmHg 93%
    02:00 +12°C° 1.1 mm 1 mps 745 mmHg 94%
    03:00 +12°C° 1.1 mm 1 mps 745 mmHg 94%
    04:00 +13°C° 1.1 mm 2 mps 745 mmHg 95%
    05:00 +13°C° 0.9 mm 1 mps 745 mmHg 95%
    06:00 +13°C° 0.9 mm 1 mps 745 mmHg 95%
    07:00 +13°C° 0.9 mm 1 mps 745 mmHg 94%
    08:00 +14°C° 1.7 mm 1 mps 745 mmHg 95%
    09:00 +14°C° 1.7 mm 1 mps 745 mmHg 95%
    10:00 +14°C° 1.7 mm 2 mps 745 mmHg 95%
    11:00 +14°C° 1.2 mm 2 mps 745 mmHg 95%
    12:00 +14°C° 1.2 mm 2 mps 744 mmHg 94%
    13:00 +15°C° 1.2 mm 2 mps 744 mmHg 94%
    14:00 +15°C° 1.1 mm 2 mps 744 mmHg 93%
    15:00 +15°C° 1.1 mm 2 mps 744 mmHg 93%
    16:00 +15°C° 1.1 mm 2 mps 744 mmHg 92%
    17:00 +15°C° 1 mm 2 mps 744 mmHg 93%
    18:00 +15°C° 1 mm 2 mps 745 mmHg 94%
    19:00 +15°C° 1 mm 2 mps 745 mmHg 95%
    20:00 +15°C° 0.4 mm 2 mps 745 mmHg 95%
    21:00 +15°C° 0.4 mm 2 mps 746 mmHg 95%
    22:00 +15°C° 0.4 mm 2 mps 746 mmHg 95%
    23:00 +15°C° 0.3 mm 1 mps 746 mmHg 95%

    22 November, Wednesday

    Time Temperature Precipitation Wind Pressure Humidity
    00:00 +15°C° 0.3 mm 1 mps 746 mmHg 95%
    01:00 +15°C° 0.3 mm 1 mps 746 mmHg 95%
    02:00 +15°C° 1.2 mm 1 mps 746 mmHg 95%
    03:00 +15°C° 1.2 mm 1 mps 747 mmHg 96%
    04:00 +15°C° 1.2 mm 1 mps 747 mmHg 96%
    05:00 +15°C° 1.1 mm 1 mps 747 mmHg 96%
    06:00 +15°C° 1.1 mm 1 mps 747 mmHg 96%
    07:00 +15°C° 1.1 mm 1 mps 747 mmHg 96%
    08:00 +15°C° 0.9 mm 1 mps 747 mmHg 95%
    09:00 +16°C° 0.9 mm 1 mps 747 mmHg 93%
    10:00 +16°C° 0.9 mm 1 mps 747 mmHg 92%
    11:00 +16°C° 0.3 mm 1 mps 747 mmHg 92%
    12:00 +16°C° 0.3 mm 1 mps 747 mmHg 92%
    13:00 +16°C° 0.3 mm 1 mps 747 mmHg 92%
    14:00 +16°C° 0.2 mm 1 mps 746 mmHg 92%
    15:00 +16°C° 0.2 mm 1 mps 746 mmHg 92%
    16:00 +16°C° 0.2 mm 1 mps 746 mmHg 93%
    17:00 +16°C° 0.3 mm 1 mps 746 mmHg 92%
    18:00 +15°C° 0.3 mm 1 mps 746 mmHg 92%
    19:00 +15°C° 0.3 mm 1 mps 746 mmHg 92%
    20:00 +15°C° 0.4 mm 2 mps 746 mmHg 93%
    21:00 +15°C° 0.4 mm 2 mps 747 mmHg 93%
    22:00 +15°C° 0.4 mm 2 mps 747 mmHg 93%
    23:00 +15°C° 0.2 mm 2 mps 746 mmHg 93%

    23 November, Thursday

    Time Temperature Precipitation Wind Pressure Humidity
    00:00 +15°C° 0.2 mm 2 mps 746 mmHg 93%
    01:00 +15°C° 0.2 mm 2 mps 746 mmHg 93%
    02:00 +15°C° 0.5 mm 2 mps 746 mmHg 93%
    03:00 +15°C° 0.5 mm 2 mps 746 mmHg 93%
    04:00 +14°C° 0.5 mm 3 mps 746 mmHg 93%
    05:00 +14°C° 1.2 mm 3 mps 746 mmHg 93%
    06:00 +14°C° 1.2 mm 3 mps 746 mmHg 93%
    07:00 +14°C° 1.2 mm 3 mps 745 mmHg 93%
    08:00 +14°C° 1.1 mm 3 mps 746 mmHg 93%
    09:00 +14°C° 1.1 mm 3 mps 746 mmHg 94%
    10:00 +14°C° 1.1 mm 3 mps 746 mmHg 94%
    11:00 +14°C° 0.6 mm 3 mps 746 mmHg 90%
    12:00 +14°C° 0.6 mm 3 mps 746 mmHg 87%
    13:00 +14°C° 0.6 mm 3 mps 746 mmHg 84%
    14:00 +13°C° 0.4 mm 3 mps 745 mmHg 84%
    15:00 +13°C° 0.4 mm 3 mps 745 mmHg 84%
    16:00 +13°C° 0.4 mm 3 mps 745 mmHg 84%
    17:00 +12°C° 0.8 mm 3 mps 745 mmHg 85%
    18:00 +12°C° 0.8 mm 4 mps 745 mmHg 86%
    19:00 +11°C° 0.8 mm 4 mps 745 mmHg 87%
    20:00 +11°C° 0.3 mm 4 mps 745 mmHg 87%
    21:00 +10°C° 0.3 mm 3 mps 746 mmHg 88%
    22:00 +10°C° 0.3 mm 3 mps 746 mmHg 88%
    23:00 +9°C° 0.1 mm 3 mps 746 mmHg 89%

    24 November, Friday

    Time Temperature Precipitation Wind Pressure Humidity
    00:00 +9°C° 0.1 mm 3 mps 747 mmHg 89%
    01:00 +9°C° 0.1 mm 3 mps 747 mmHg 90%
    02:00 +8°C° 0.2 mm 3 mps 747 mmHg 90%
    03:00 +8°C° 0.2 mm 3 mps 748 mmHg 91%
    04:00 +8°C° 0.2 mm 2 mps 748 mmHg 92%
    05:00 +8°C° 0.1 mm 2 mps 748 mmHg 92%
    06:00 +7°C° 0.1 mm 2 mps 748 mmHg 93%
    07:00 +7°C° 0.1 mm 2 mps 749 mmHg 93%
    08:00 +8°C° 0.1 mm 2 mps 749 mmHg 90%
    09:00 +9°C° 0.1 mm 2 mps 749 mmHg 87%
    10:00 +10°C° 0.1 mm 2 mps 749 mmHg 84%
    11:00 +10°C° 0.1 mm 2 mps 749 mmHg 80%
    12:00 +12°C° 0.1 mm 2 mps 749 mmHg 76%
    13:00 +13°C° 0.1 mm 2 mps 749 mmHg 72%
    14:00 +12°C° 0.1 mm 2 mps 748 mmHg 75%
    15:00 +12°C° 0.1 mm 2 mps 748 mmHg 77%
    16:00 +11°C° 0.1 mm 1 mps 748 mmHg 80%
    17:00 +10°C° 0 mm 1 mps 748 mmHg 82%
    18:00 +9°C° 0 mm 1 mps 748 mmHg 85%
    19:00 +8°C° 0 mm 1 mps 748 mmHg 87%
    20:00 +8°C° 0 mm 1 mps 748 mmHg 86%
    21:00 +7°C° 0 mm 1 mps 748 mmHg 86%
    22:00 +7°C° 0 mm 1 mps 748 mmHg 85%
    23:00 +7°C° 0 mm 1 mps 747 mmHg 84%
    Show more